Location: Sungai Lasa
(2.4500°N, 113.4500°E)
Time: 04:34:38
(UTC+00:00)

H-2A R/B - Pass Details

Date: 03 February 2023
Orbit: 732 x 836 km, 98.2° (Epoch: 26 March)

Event Time Altitude Azimuth Distance (km) Brightness Sun altitude
Rises 21:35:30 0° 13° (NNE) 3,344 5.3 -16.2°
Reaches altitude 10° 21:37:52 10° 14° (NNE) 2,402 4.5 -15.6°
Maximum altitude 21:43:12 83° 102° (ESE) 811 2.2 -14.3°
Drops below altitude 10° 21:48:24 10° 190° (S) 2,346 4.6 -13.1°
Sets 21:50:42 0° 190° (S) 3,260 5.3 -12.5°
